2024-159A

Last updated on Thu Sep 19 2024 00:02:04 GMT+0000 (Coordinated Universal Time)

1 61011U 24159A 24262.39292299 .00018597 00000+0 14123-2 0 9993 2 61011 50.0022 180.3129 0007864 301.7839 58.2340 15.02139243 1890
UTC large
Height (km)
Speed (km/s)
/
Latitude / Longitude
Inclination (degrees)
Orbital Period (minutes)
Azimuth
Elevation
Range (km)
Doppler Factor

Next 0 passes for location: London (51.5072 / 0.1276)

Sorry there are no passes over London.